• Join FlightAware (Why Join?)
  • Login
  • US Flag 
06:47AM EST


 

Airport Tracker/Info


-or-


 

Live Flight TrackerFlight Track Log ✈ QJE1798 ✈ 06-Jul-2014 ✈ YBBN / BNE - YBAS / ASP

Flight Track Log - Related Links

Times and Time Zones

All times are in EDT time to prevent confusion due to time zone crossing. See the QJE1798 flight status page for this flight to view local times or setup timezone preferences in your user account.

Time Position Orientation Groundspeed Altitude Reporting Facility
EDT Latitude Longitude Course Direction KTS MPH feet Rate Location/Type
08:06PM -27.3971 153.1216 206° Southwest 175 201 200  Level FlightAware ADS-B (KSNA)
08:07PM -27.4079 153.1158 207° Southwest 167 192 1,000 3,000 Climbing FlightAware ADS-B (KSNA)
08:07PM -27.4179 153.1097 209° Southwest 166 191 1,700 1,980 Climbing FlightAware ADS-B (KSNA)
08:07PM -27.4282 153.1032 210° Southwest 182 209 2,000 1,380 Climbing FlightAware ADS-B (KSNA)
08:07PM -27.4403 153.0956 210° Southwest 201 231 2,400 1,380 Climbing FlightAware ADS-B (KSNA)
08:08PM -27.4526 153.0878 209° Southwest 215 247 2,700 1,800 Climbing FlightAware ADS-B (KSNA)
08:08PM -27.4662 153.0795 209° Southwest 222 255 3,300 2,580 Climbing FlightAware ADS-B (KSNA)
08:08PM -27.4799 153.0710 211° Southwest 222 255 4,000 2,700 Climbing FlightAware ADS-B (KSNA)
08:08PM -27.4840 153.0675 221° Southwest 221 254 4,200 3,000 Climbing FlightAware ADS-B (KSNA)
08:08PM -27.4868 153.0642 233° Southwest 223 257 4,500 3,000 Climbing FlightAware ADS-B (KSNA)
08:08PM -27.4900 153.0585 242° Southwest 224 258 4,700 2,220 Climbing FlightAware ADS-B (KSNA)
08:08PM -27.4911 153.0557 249° West 226 260 4,800 2,400 Climbing FlightAware ADS-B (KSNA)
08:09PM -27.4927 153.0469 265° West 230 265 5,100 2,460 Climbing FlightAware ADS-B (KSNA)
08:09PM -27.4928 153.0420 272° West 234 269 5,300 1,800 Climbing FlightAware ADS-B (KSNA)
08:09PM -27.4920 153.0344 279° West 241 277 5,400 1,200 Climbing FlightAware ADS-B (KSNA)
08:09PM -27.4907 153.0285 286° West 248 285 5,500 1,200 Climbing FlightAware ADS-B (KSNA)
08:09PM -27.4887 153.0228 293° West 255 293 5,600 1,800 Climbing FlightAware ADS-B (KSNA)
08:09PM -27.4858 153.0168 301° West 262 302 5,800 2,400 Climbing FlightAware ADS-B (KSNA)
08:09PM -27.4819 153.0108 307° West 265 305 6,000 2,520 Climbing FlightAware ADS-B (KSNA)
08:09PM -27.4696 152.9946 311° West 271 312 6,700 2,700 Climbing FlightAware ADS-B (KSNA)
08:09PM -27.4661 152.9902 312° West 273 314 6,900 2,400 Climbing FlightAware ADS-B (KSNA)
08:10PM -27.4519 152.9723 312° West 276 318 7,500 2,280 Climbing FlightAware ADS-B (KSNA)
08:10PM -27.4394 152.9568 311° West 274 315 8,100 2,400 Climbing FlightAware ADS-B (YTWB)
08:10PM -27.4308 152.9460 312° West 281 323 8,500 2,700 Climbing FlightAware ADS-B (KSNA)
08:10PM -27.4217 152.9347 311° West 274 315 9,000 3,300 Climbing FlightAware ADS-B (YTWB)
08:10PM -27.4131 152.9239 310° West 272 313 9,600 3,300 Climbing FlightAware ADS-B (YTWB)
08:11PM -27.4042 152.9127 311° West 271 312 10,100 2,700 Climbing FlightAware ADS-B (YTWB)
08:11PM -27.3957 152.9020 311° West 275 316 10,500 1,500 Climbing FlightAware ADS-B (YTWB)
08:11PM -27.3701 152.8696 311° West 308 354 11,100 1,260 Climbing FlightAware ADS-B (KSNA)
08:12PM -27.3392 152.8305 311° West 331 381 11,800 1,260 Climbing FlightAware ADS-B (KSNA)
08:12PM -27.3089 152.7922 312° West 340 391 12,400 1,320 Climbing FlightAware ADS-B (YTWB)
08:12PM -27.3026 152.7842 311° West 351 404 12,600 1,500 Climbing FlightAware ADS-B (YTWB)
08:13PM -27.2690 152.7417 312° West 375 432 13,300 1,860 Climbing FlightAware ADS-B (KSNA)
08:13PM -27.2312 152.6942 312° West 373 429 14,600 2,400 Climbing FlightAware ADS-B (KSNA)
08:14PM -27.2171 152.6765 311° West 369 425 15,100 2,400 Climbing FlightAware ADS-B (YTWB)
08:14PM -27.2053 152.6617 311° West 370 426 15,500 2,100 Climbing FlightAware ADS-B (YTWB)
08:14PM -27.1934 152.6468 311° West 373 429 15,800 1,800 Climbing FlightAware ADS-B (YTWB)
08:14PM -27.1817 152.6321 311° West 375 432 16,100 1,980 Climbing FlightAware ADS-B (YTWB)
08:14PM -27.1704 152.6180 312° West 380 437 16,500 2,280 Climbing FlightAware ADS-B (KSNA)
08:14PM -27.1576 152.6018 312° West 380 437 16,900 2,100 Climbing FlightAware ADS-B (KSNA)
08:15PM -27.1458 152.5870 312° West 382 440 17,200 1,620 Climbing FlightAware ADS-B (KSNA)
08:15PM -27.1096 152.5412 312° West 392 451 18,000 1,740 Climbing FlightAware ADS-B (KSNA)
08:16PM -27.0738 152.4963 311° West 393 452 19,000 1,560 Climbing FlightAware ADS-B (KSNA)
08:16PM -27.0472 152.4541 298° West 392 451 19,500 1,380 Climbing FlightAware ADS-B (KSNA)
08:17PM -27.0209 152.3974 298° West 395 455 20,300 1,500 Climbing FlightAware ADS-B (KSNA)
08:17PM -27.0122 152.3793 297° West 393 452 20,500 1,320 Climbing FlightAware ADS-B (YTWB)
08:17PM -26.9854 152.3234 298° West 404 465 21,200 1,380 Climbing FlightAware ADS-B (KSNA)
08:18PM -26.9679 152.2868 297° West 402 463 21,700 1,320 Climbing FlightAware ADS-B (YTWB)
08:18PM -26.9423 152.2327 298° West 410 472 22,300 1,320 Climbing FlightAware ADS-B (KSNA)
08:19PM -26.9139 152.1727 298° West 411 473 23,100 1,260 Climbing FlightAware ADS-B (KSNA)
08:19PM -26.8872 152.1164 298° West 417 480 23,600 1,080 Climbing FlightAware ADS-B (KSNA)
08:20PM -26.8593 152.0577 298° West 421 484 24,200 1,020 Climbing FlightAware ADS-B (KSNA)
08:20PM -26.8512 152.0407 297° West 419 482 24,300 780 Climbing FlightAware ADS-B (YTWB)
08:20PM -26.8391 152.0153 297° West 419 482 24,500 1,080 Climbing FlightAware ADS-B (YTWB)
08:20PM -26.8298 151.9960 297° West 419 482 24,700 1,200 Climbing FlightAware ADS-B (YTWB)
08:20PM -26.8204 151.9763 297° West 419 482 24,900 1,380 Climbing FlightAware ADS-B (YTWB)
08:20PM -26.8110 151.9567 297° West 418 481 25,200 1,380 Climbing FlightAware ADS-B (YTWB)
08:21PM -26.8017 151.9375 297° West 419 482 25,400 900 Climbing FlightAware ADS-B (YTWB)
08:21PM -26.7936 151.9205 297° West 420 483 25,500 600 Climbing FlightAware ADS-B (YTWB)
08:21PM -26.7837 151.8999 297° West 424 488 25,600 600 Climbing FlightAware ADS-B (YTWB)
08:21PM -26.7747 151.8806 295° West 426 490 25,700 600 Climbing FlightAware ADS-B (YTWB)
08:21PM -26.7671 151.8593 288° West 426 490 25,800 780 Climbing FlightAware ADS-B (YTWB)
08:22PM -26.7551 151.8172 286° West 423 487 26,100 960 Climbing FlightAware ADS-B (YTWB)
08:22PM -26.7501 151.7955 282° West 422 486 26,300 1,200 Climbing FlightAware ADS-B (YTWB)
08:22PM -26.7470 151.7758 277° West 421 484 26,500 1,200 Climbing FlightAware ADS-B (YTWB)
08:22PM -26.7448 151.7542 275° West 419 482 26,700 1,380 Climbing FlightAware ADS-B (YTWB)
08:22PM -26.7425 151.7301 276° West 417 480 27,000 1,380 Climbing FlightAware ADS-B (KSNA)
08:22PM -26.7406 151.7104 276° West 417 480 27,200 900 Climbing FlightAware ADS-B (KSNA)
08:23PM -26.7385 151.6872 276° West 419 482 27,300 600 Climbing FlightAware ADS-B (KSNA)
08:23PM -26.7367 151.6669 276° West 420 483 27,400 1,200 Climbing FlightAware ADS-B (KSNA)
08:23PM -26.7349 151.6454 275° West 416 479 27,700 1,200 Climbing FlightAware ADS-B (KSNA)
08:23PM -26.7297 151.5812 275° West 414 476 28,200 1,200 Climbing FlightAware ADS-B (KSNA)
08:24PM -26.7248 151.5181 275° West 409 471 28,900 1,260 Climbing FlightAware ADS-B (KSNA)
08:24PM -26.7194 151.4540 275° West 406 467 29,500 960 Climbing FlightAware ADS-B (KSNA)
08:25PM -26.7159 151.4119 276° West 407 468 29,700 600 Climbing FlightAware ADS-B (KSNA)
08:25PM -26.7140 151.3910 276° West 408 470 29,800 420 Climbing FlightAware ADS-B (KSNA)
08:25PM -26.7084 151.3293 275° West 408 470 30,000 300 Climbing FlightAware ADS-B (YTWB)
08:26PM -26.7072 151.3163 276° West 408 470 30,000  Level FlightAware ADS-B (KSNA)
08:26PM -26.7044 151.2841 276° West 407 468 30,000  Level FlightAware ADS-B (KSNA)
08:26PM -26.6994 151.2258 276° West 405 466 30,000  Level FlightAware ADS-B (KSNA)
08:26PM -26.6985 151.2153 276° West 405 466 30,000  Level FlightAware ADS-B (KSNA)
08:27PM -26.6926 151.1505 276° West 405 466 30,000  Level FlightAware ADS-B (KSNA)
08:27PM -26.6859 151.0799 275° West 402 463 30,000  Level FlightAware ADS-B (YTWB)
08:28PM -26.6844 151.0634 275° West 402 463 30,000  Level FlightAware ADS-B (YTWB)
08:28PM -26.6789 151.0022 276° West 403 464 30,000  Level FlightAware ADS-B (KSNA)
08:29PM -26.6733 150.9405 276° West 403 464 30,000  Level FlightAware ADS-B (KSNA)
08:29PM -26.6674 150.8786 276° West 402 463 30,000  Level FlightAware ADS-B (KSNA)
08:30PM -26.6617 150.8183 276° West 402 463 30,000  Level FlightAware ADS-B (KSNA)
08:30PM -26.6590 150.7906 275° West 403 464 30,000  Level FlightAware ADS-B (YTWB)
08:30PM -26.6570 150.7695 275° West 402 463 30,000  Level FlightAware ADS-B (YTWB)
08:30PM -26.6562 150.7604 275° West 402 463 30,000  Level FlightAware ADS-B (YTWB)
08:31PM -26.6473 150.6644 276° West 403 464 30,000 60 Level FlightAware ADS-B (KSNA)
08:31PM -26.6406 150.5981 276° West 398 458 30,100 60 Climbing Aus ATC (RADAR)
08:32PM -26.6329 150.5152 276° West 399 459 30,100  Level Aus ATC (RADAR)
08:33PM -26.6240 150.4221 276° West 399 459 30,100  Level Aus ATC (RADAR)
08:33PM -26.6179 150.3602 276° West 399 459 30,100  Level Aus ATC (RADAR)
08:34PM -26.6068 150.2471 276° West 397 457 30,100  Level Aus ATC (RADAR)
08:35PM -26.6009 150.1854 276° West 397 457 30,100  Level Aus ATC (RADAR)
08:35PM -26.5963 150.1340 276° West 397 457 30,100  Level Aus ATC (RADAR)
08:36PM -26.5886 150.0624 277° West 396 456 30,100  Level Aus ATC (RADAR)
08:36PM -26.5786 149.9601 276° West 395 455 30,100  Level Aus ATC (RADAR)
08:37PM -26.5703 149.8782 276° West 396 456 30,100  Level Aus ATC (RADAR)
08:38PM -26.5612 149.7861 276° West 395 455 30,100  Level Aus ATC (RADAR)
08:38PM -26.5559 149.7352 277° West 395 455 30,100  Level Aus ATC (RADAR)
08:39PM -26.5457 149.6329 276° West 396 456 30,100  Level Aus ATC (RADAR)
08:40PM -26.5386 149.5703 277° West 401 461 30,100  Level Aus ATC (RADAR)
08:40PM -26.5325 149.5086 276° West 401 461 30,100  Level Aus ATC (RADAR)
08:41PM -26.5250 149.4369 277° West 399 459 30,100  Level Aus ATC (RADAR)
08:41PM -26.5154 149.3459 277° West 395 455 30,100  Level Aus ATC (RADAR)
08:42PM -26.5069 149.2648 277° West 394 453 30,100  Level Aus ATC (RADAR)
08:43PM -26.4955 149.1631 277° West 394 453 30,100  Level Aus ATC (RADAR)
08:44PM -26.4883 149.0923 276° West 393 452 30,100  Level Aus ATC (RADAR)
08:45PM -26.4718 148.9405 277° West 392 451 30,100  Level Aus ATC (RADAR)
08:45PM -26.4665 148.8905 277° West 390 449 30,100  Level Aus ATC (RADAR)
08:46PM -26.4592 148.8198 277° West 392 451 30,100  Level Aus ATC (RADAR)
08:46PM -26.4505 148.7386 277° West 393 452 30,100  Level Aus ATC (RADAR)
08:47PM -26.4422 148.6674 277° West 395 455 30,100  Level Aus ATC (RADAR)
08:48PM -26.4313 148.5663 277° West 394 453 30,100  Level Aus ATC (RADAR)
08:48PM -26.4252 148.5147 277° West 397 457 30,100  Level Aus ATC (RADAR)
08:49PM -26.4173 148.4438 277° West 396 456 30,100  Level Aus ATC (RADAR)
08:50PM -26.4035 148.3129 277° West 393 452 30,100  Level Aus ATC (RADAR)
08:50PM -26.3982 148.2624 277° West 393 452 30,100  Level Aus ATC (RADAR)
08:51PM -26.3884 148.1804 278° West 396 456 30,100  Level Aus ATC (RADAR)
08:52PM -26.3800 148.1085 277° West 398 458 30,100  Level Aus ATC (RADAR)
08:52PM -26.3711 148.0279 277° West 395 455 30,100  Level Aus ATC (RADAR)
08:53PM -26.3597 147.9263 277° West 395 455 30,100 60 Level Aus ATC (RADAR)
08:54PM -26.3535 147.8752 278° West 396 456 30,200 60 Climbing Aus ATC (RADAR)
08:54PM -26.3439 147.7933 277° West 398 458 30,200  Level Aus ATC (RADAR)
08:55PM -26.3292 147.6613 277° West 396 456 30,200  Level Aus ATC (RADAR)
08:56PM -26.3245 147.6207 277° West 395 455 30,200  Level Aus ATC (RADAR)
08:56PM -26.3155 147.5392 277° West 397 457 30,200  Level Aus ATC (RADAR)
08:57PM -26.3058 147.4579 278° West 397 457 30,200  Level Aus ATC (RADAR)
08:58PM -26.2991 147.3871 276° West 397 457 30,200  Level Aus ATC (RADAR)
08:58PM -26.2898 147.3245 279° West 398 458 30,200 -60 Level Aus ATC (RADAR)
09:01PM -26.2419 146.9236 279° West 30,000 -60 Descending Aus ATC (Calculated)
09:03PM -26.2186 146.7571 279° West  Level Estimated
09:03PM -26.2090 146.6531 279° West 30,000  Level Aus ATC (Calculated)
09:04PM -26.2016 146.6368 279° West  Level Estimated
09:05PM -26.1910 146.5268 279° West  Level Estimated
09:06PM -26.1737 146.4066 279° West  Level Estimated
09:07PM -26.1564 146.2864 279° West  Level Estimated
09:08PM -26.1390 146.1662 279° West  Level Estimated
09:08PM -26.1351 146.0620 279° West 30,000  Level Aus ATC (Calculated)
09:09PM -26.1215 146.0461 279° West  Level Estimated
09:10PM -26.1147 145.9239 279° West  Level Estimated
09:11PM -26.0969 145.8038 279° West  Level Estimated
09:12PM -26.0819 145.6833 278° West  Level FlightAware Approximate
09:13PM -26.0668 145.5628 278° West  Level FlightAware Approximate
09:13PM -26.0511 145.4126 280° West 30,000  Level Aus ATC (Calculated)
09:14PM -26.0516 145.4424 278° West  Level FlightAware Approximate
09:15PM -26.0328 145.2742 278° West  Level FlightAware Approximate
09:16PM -26.0168 145.1539 278° West  Level FlightAware Approximate
09:17PM -26.0007 145.0337 278° West  Level FlightAware Approximate
09:17PM -25.9862 144.9262 280° West 30,000  Level Aus ATC (Calculated)
09:18PM -25.9845 144.9135 279° West  Level FlightAware Approximate
09:18PM -25.9642 144.7641 280° West 30,000  Level Aus ATC (Calculated)
09:19PM -25.9688 144.7980 279° West  Level FlightAware Approximate
09:19PM -25.9551 144.7074 280° West 32,000  Level Aus ATC (Calculated)
09:21PM -25.9414 144.6217 280° West  Level FlightAware Approximate
09:22PM -25.9223 144.5028 280° West  Level FlightAware Approximate
09:23PM -25.9031 144.3840 280° West  Level FlightAware Approximate
09:24PM -25.8838 144.2652 280° West  Level FlightAware Approximate
09:24PM -25.8556 144.0931 280° West 32,000  Level Aus ATC (Calculated)
09:26PM -25.8246 143.9051 280° West  Level FlightAware Approximate
09:27PM -25.8050 143.7865 280° West  Level FlightAware Approximate
09:28PM -25.7852 143.6679 280° West  Level FlightAware Approximate
09:29PM -25.7653 143.5493 281° West  Level FlightAware Approximate
09:29PM -25.7635 143.5390 281° West 32,000  Level Aus ATC (Calculated)
09:31PM -25.7313 143.3482 281° West  Level FlightAware Approximate
09:32PM -25.7110 143.2290 281° West  Level FlightAware Approximate
09:33PM -25.6907 143.1099 281° West  Level FlightAware Approximate
09:34PM -25.6702 142.9908 281° West  Level FlightAware Approximate
09:34PM -25.6614 142.9397 281° West 32,000  Level Aus ATC (Calculated)
09:36PM -25.6284 142.7493 281° West  Level FlightAware Approximate
09:36PM -25.6127 142.6591 281° West 32,000  Level Aus ATC (Calculated)
09:38PM -25.5835 142.4926 281° West  Level FlightAware Approximate
09:38PM -25.5795 142.4699 281° West 32,000  Level Aus ATC (Calculated)
09:39PM -25.5625 142.3737 281° West  Level FlightAware Approximate
09:39PM -25.5649 142.3871 281° West 32,000  Level Aus ATC (Calculated)
09:41PM -25.5308 142.1950 281° West  Level FlightAware Approximate
09:42PM -25.5096 142.0762 281° West  Level FlightAware Approximate
09:43PM -25.4883 141.9575 281° West  Level FlightAware Approximate
09:44PM -25.4669 141.8388 281° West  Level FlightAware Approximate
09:44PM -25.4539 141.7670 281° West 32,000  Level Aus ATC (Calculated)
09:45PM -25.4454 141.7202 281° West  Level FlightAware Approximate
09:46PM -25.4190 141.5753 281° West  Level FlightAware Approximate
09:47PM -25.3973 141.4567 281° West  Level FlightAware Approximate
09:47PM -25.3690 141.3027 282° West 32,000  Level Aus ATC (Calculated)
09:48PM -25.3755 141.3382 281° West  Level FlightAware Approximate
09:48PM -25.3403 141.1481 282° West 32,000  Level Aus ATC (Calculated)
09:49PM -25.3391 141.1408 282° West  Level Estimated
09:50PM -25.3157 141.0159 282° West  Level FlightAware Approximate
09:51PM -25.2935 140.8975 282° West  Level FlightAware Approximate
09:52PM -25.2713 140.7792 282° West  Level FlightAware Approximate
09:53PM -25.2489 140.6609 282° West  Level FlightAware Approximate
09:53PM -25.2274 140.5479 282° West 32,000  Level Aus ATC (Calculated)
09:54PM -25.2265 140.5427 282° West  Level FlightAware Approximate
09:55PM -25.2017 140.4131 282° West  Level FlightAware Approximate
09:56PM -25.1790 140.2943 282° West  Level FlightAware Approximate
09:57PM -25.1561 140.1755 282° West  Level FlightAware Approximate
09:58PM -25.1331 140.0567 282° West  Level FlightAware Approximate
09:58PM -25.1015 139.8944 282° West 32,000  Level Aus ATC (Calculated)
09:59PM -25.1100 139.9380 282° West  Level FlightAware Approximate
10:00PM -25.0749 139.7580 282° West  Level FlightAware Approximate
10:01PM -25.0515 139.6394 282° West  Level FlightAware Approximate
10:01PM -25.0482 139.6225 282° West 32,000  Level Aus ATC (Calculated)
10:02PM -25.0268 139.5138 282° West 32,000 -60 Level Aus ATC (Calculated)
10:03PM -24.9836 139.2966 282° West 32,000 -60 Level Aus ATC (Calculated)
10:04PM -24.9856 139.3065 282° West  Level FlightAware Approximate
10:05PM -24.9564 139.1604 282° West  Level FlightAware Approximate
10:06PM -24.9326 139.0420 282° West  Level FlightAware Approximate
10:07PM -24.9087 138.9237 283° West  Level FlightAware Approximate
10:08PM -24.8848 138.8054 283° West  Level FlightAware Approximate
10:08PM -24.8633 138.6999 283° West 32,000  Level Aus ATC (Calculated)
10:09PM -24.8607 138.6872 283° West  Level FlightAware Approximate
10:10PM -24.8355 138.5640 283° West  Level FlightAware Approximate
10:11PM -24.8113 138.4458 283° West  Level FlightAware Approximate
10:12PM -24.7869 138.3277 283° West  Level FlightAware Approximate
10:13PM -24.7625 138.2097 283° West  Level FlightAware Approximate
10:14PM -24.7380 138.0917 283° West  Level FlightAware Approximate
10:14PM -24.7293 138.0503 283° West 32,000  Level Aus ATC (Calculated)
10:15PM -24.6841 137.8340 283° West 32,000 -120 Level Aus ATC (Calculated)
10:16PM -24.6830 137.8288 283° West  Level FlightAware Approximate
10:16PM -24.6499 137.6720 283° West 32,000  Level Aus ATC (Calculated)
10:17PM -24.6541 137.6918 283° West  Level FlightAware Approximate
10:18PM -24.6067 137.5425 290° West  Level FlightAware Approximate
10:19PM -24.6355 137.6036 283° West  Level FlightAware Approximate
10:19PM -24.5894 137.3873 283° West 32,000  Level Aus ATC (Calculated)
10:20PM -24.6103 137.4852 283° West  Level FlightAware Approximate
10:21PM -24.5480 137.1940 283° West  Level FlightAware Approximate
10:21PM -24.5407 137.1599 283° West 32,000  Level Aus ATC (Calculated)
10:22PM -24.5225 137.0757 283° West  Level FlightAware Approximate
10:23PM -24.5053 136.9962 283° West  Level FlightAware Approximate
10:23PM -24.4792 136.8757 283° West 32,000  Level Aus ATC (Calculated)
10:24PM -24.4797 136.8780 283° West  Level FlightAware Approximate
10:25PM -24.4513 136.7477 284° West  Level FlightAware Approximate
10:26PM -24.4254 136.6296 284° West  Level FlightAware Approximate
10:27PM -24.3994 136.5116 284° West  Level FlightAware Approximate
10:28PM -24.3733 136.3935 284° West  Level FlightAware Approximate
10:28PM -24.3547 136.3096 284° West 900  Level Aus ATC (Calculated)
10:29PM -24.3471 136.2756 284° West  Level FlightAware Approximate
10:30PM -24.3227 136.1661 284° West  Level FlightAware Approximate
10:31PM -24.2964 136.0483 284° West  Level FlightAware Approximate
10:32PM -24.2699 135.9305 284° West  Level FlightAware Approximate
10:33PM -24.2433 135.8127 284° West  Level FlightAware Approximate
10:33PM -24.2384 135.7754 284° West  Level Aus ATC (Calculated)
10:34PM -24.2167 135.6950 284° West  Level FlightAware Approximate
10:34PM -24.2184 135.6858 284° West  Level Aus ATC (Calculated)
10:35PM -24.1922 135.5870 284° West 900 9,000 Climbing Aus ATC (Calculated)
10:36PM -24.1510 135.4066 284° West 900 11,400 Level Aus ATC (Calculated)
10:37PM -24.1439 135.3753 284° West  Level FlightAware Approximate
10:37PM -24.0493 134.9648 284° West 435 501 30,000  Level FlightAware ADS-B (YBAS / ASP)
10:38PM -24.1223 135.2813 284° West  Level FlightAware Approximate
10:38PM -24.1304 135.3165 284° West 900  Level Aus ATC (Calculated)
10:38PM -24.0344 134.9004 284° West 427 491 29,000 46,020 Climbing FlightAware ADS-B (YBAS / ASP)
10:38PM -24.0200 134.8384 284° West 427 491 27,000 -4,200 Descending FlightAware ADS-B (YBAS / ASP)
10:39PM -23.9988 134.7473 284° West 431 496 23,800 -4,080 Descending FlightAware ADS-B (YBAS / ASP)
10:39PM -24.0889 135.1363 284° West 900 -3,840 Descending Aus ATC (Calculated)
10:40PM -23.9832 134.6799 284° West 427 491 21,900 33,060 Climbing FlightAware ADS-B (YBAS / ASP)
10:40PM -23.9686 134.6180 284° West 421 484 20,200 -3,240 Descending FlightAware ADS-B (YBAS / ASP)
10:40PM -24.0681 135.0463 284° West 900 -3,000 Descending Aus ATC (Calculated)
10:41PM -23.9539 134.5569 285° West 410 472 18,700 20,700 Climbing FlightAware ADS-B (YBAS / ASP)
10:41PM -23.9394 134.4966 285° West 407 468 16,800 -3,780 Descending FlightAware ADS-B (YBAS / ASP)
10:42PM -23.9241 134.4368 285° West 399 459 14,900 -3,840 Descending FlightAware ADS-B (YBAS / ASP)
10:43PM -23.9843 134.6863 284° West 900 -8,580 Descending Aus ATC (Calculated)
10:44PM -23.8702 134.2064 284° West  Level FlightAware Approximate
10:45PM -23.9492 134.5296 284° West  Level Estimated
10:46PM -23.9213 134.4125 285° West  Level FlightAware Approximate
10:46PM -23.8997 134.3269 283° West 900  Level Aus ATC (Calculated)
10:47PM -23.8933 134.2955 285° West  Level FlightAware Approximate
10:48PM -23.8626 134.1708 285° West  Level FlightAware Approximate
10:49PM -23.8347 134.0538 285° West  Level FlightAware Approximate
10:50PM -23.8068 133.9368 285° West  Level FlightAware Approximate
10:51PM -23.8067 133.9022 284° West  Level Estimated
10:52PM -23.8067 133.9022 North  Level Estimated
10:53PM -23.8067 133.9022 284° West  Level Estimated
10:54PM -23.8067 133.9022 North  Level Estimated
10:55PM -23.8067 133.9022 284° West  Level Estimated
10:56PM -23.8067 133.9022 North  Level Estimated
10:57PM -23.8067 133.9022 284° West  Level Estimated
10:58PM -23.8067 133.9022 North  Level Estimated
10:59PM -23.8067 133.9022 284° West  Level Estimated
11:00PM -23.8067 133.9022 North  Level Estimated
11:01PM -23.8067 133.9022 284° West  Level Estimated
11:02PM -23.8067 133.9022 North  Level Estimated
11:03PM -23.8067 133.9022 284° West  Level Estimated
11:04PM -23.8067 133.9022 North  Level Estimated
11:05PM -23.8067 133.9022 284° West  Level Estimated
11:06PM -23.8067 133.9022 North  Level Estimated